Location: Stillwell
(40.4602°N, 82.0928°W)
Time: 16:14:44
(UTC-04:00)

Shenzhou-11 Module - Pass Details

Date: 25 May 2018
Orbit: 351 x 353 km, 42.8° (Epoch: 18 June)

Event Time Altitude Azimuth Distance (km) Brightness Sun altitude
Rises 22:31:03 0° 286° (WNW) 2,163 6.9 -16.3°
Reaches altitude 10° 22:33:05 10° 286° (WNW) 1,317 5.6 -16.6°
Maximum altitude 22:36:02 86° 202° (SSW) 356 1.8 -16.9°
Enters shadow 22:36:26 64° 116° (ESE) 393 1.8 -17.0°
